YAOGAN 19

Satellite information

Favourite Embed

Satellite Type and Status

PAYLOADIN ORBIT

Key statistics

Satellite YAOGAN 19 at a glance.

Uptime

4245

Days in orbit

Revolutions

≈ 13.2

Per day

Orbit

SSO

Sun Synchronous Orbit

Inclination

100.1

Latest

Satellite identification and parameters

Extended collection of information and parameters for YAOGAN 19.

Object identification

Identified? True

Debris? False

Object name: YAOGAN 19

International designator: 2013-065A

Object number (NORAD): 39410

Object ID (CCSDS): 39410

Country: PEOPLES REPUBLIC OF CHINA (PRC)

Current information (Y/N): Y

RCS size: LARGE

Orbital parameters

Period: 109.459 minutes

Inclination: 100.0688 deg

SMA: 7579.855 km

Apoapsis: 1208.959 km

Periapsis: 1194.481 km

RAAN: 173.4589 deg

Eccentricy: 0.000955

Argument of periapsis: 163.1132 deg

Mean anomaly: 197.0301 deg

Mean motion: 13.15562297 rev/day

Mean motion (dot): 0.00000001 rev/day2

B* drag term: 0.00011429 1/REarth

Two-line elements (TLE)

Creation date: July 4, 2025, 10:36 p.m.

Reference frame: TEME

Reference center: EARTH

Epoch: July 4, 2025, 8:17 p.m. UTC

TLE line 0: 0 YAOGAN 19

TLE line 1: 1 39410U 13065A 25185.84571247 .00000001 00000-0 11429-3 0 9992

TLE line 2: 2 39410 100.0688 173.4589 0009550 163.1132 197.0301 13.15562297558005

Live tracking on map

Real-time ground track for satellite YAOGAN 19.

In-orbit conjunctions

There are no conjunctions computed for YAOGAN 19, at the moment. Check back to stay up to date, as we update our databases every day.

Go to all conjunctions

Associated space launch

YAOGAN 19 was lifted into orbit during the mission ‘Long March 4C | Yaogan 19’, on board a Long March 4C space rocket.

The launch took place on Nov. 20, 2013, 3:31 a.m. from Launch Complex 9.

For more information about the launch, click the button.

Launch to space Long March 4C | Yaogan 19
Long March 4C | Yaogan 19

Agency: N/A

Status: Launch Successful

Launch date: Nov. 20, 2013, 3:31 a.m. UTC

Rocket: Long March 4C

Launch pad: Launch Complex 9

Location: Taiyuan Satellite Launch Center, People's Republic of China

...

Latest news about this satellite

There are no fresh news available about this satellite. Check back as we update our databases every day.


Newsletter sign-up

Weekly statistics, charts and insights to help you stay on top of the space industry.